Home   Weather   Nanning   Past weeks

Flag for China Past Weather in Nanning, Guangxi, China — Yesterday and Last 2 Weeks

Now
54 °F

Clear.


Feels Like: 54 °F
Forecast: 56 / 73 °F
Wind: 1 mph from North

Location: Nanning Airport

Current Time: Dec 3, 2016 at 6:33:21 am

Latest Report: Dec 3, 2016 at 6:00 am


Visibility: 4 mi

Pressure: 30.18 "Hg

Humidity: 88%

Dew Point: 50 °F

Location of NanningLocation

Past Weather in Nanning — Graph

°F

Nanning Temperature Yesterday

Maximum temperature yesterday: 70 °F (at 2:00 pm)
Minimum temperature yesterday: 50 °F (at 4:00 am)
Average temperature yesterday: 60 °F

High & Low Weather Summary for the Past Weeks

 TemperatureHumidityPressure
High86 °F (Nov 22, 3:00 pm)100% (Nov 25, 2:00 am)30.36 "Hg (Nov 25, 2:00 am)
Low48 °F (Nov 25, 1:00 am)38% (Nov 28, 3:00 pm)29.77 "Hg (Nov 21, 4:00 pm)
Average64 °F75%30.08 "Hg
* Reported Nov 18 5:00 am — Dec 3 5:00 am, Nanning, Weather by CustomWeather, © 2016

Note: Actual official high and low records may vary slightly from our data, if they occured in-between our weather recording intervals... More about our weather records

Advertising

Nanning Weather History for the Previous 24 Hours

Scroll right to see more
 ConditionsComfort  
Time TempWeatherWind HumidityBarometerVisibility
5:00 am
Sat, Dec 3
54 °FClear.1 mph88%30.18 "Hg4 mi
4:00 am54 °FClear.No wind94%30.18 "Hg4 mi
3:00 am55 °FClear.1 mph88%30.21 "Hg4 mi
2:00 am55 °FClear.1 mph94%30.21 "Hg4 mi
1:00 am57 °FClear.1 mph82%30.21 "Hg4 mi
12:00 am55 °FClear.1 mph88%30.21 "Hg4 mi
11:00 pm
Fri, Dec 2
57 °FClear.1 mph82%30.21 "Hg4 mi
10:00 pm59 °FClear.No wind77%30.21 "Hg4 mi
9:00 pm61 °FClear.3 mph72%30.21 "Hg4 mi
8:00 pm64 °FClear.6 mph60%30.18 "Hg5 mi
7:00 pm64 °FPassing clouds.3 mph64%30.18 "HgN/A
6:00 pm66 °FClear.6 mph56%30.15 "Hg10 mi
5:00 pm68 °FSunny.6 mph49%30.15 "Hg10 mi
4:00 pm70 °FPassing clouds.3 mph46%30.15 "HgN/A
3:00 pm70 °FPassing clouds.3 mph46%30.15 "HgN/A
2:00 pm70 °FPassing clouds.8 mph46%30.18 "HgN/A
1:00 pm68 °FPassing clouds.8 mph49%30.24 "HgN/A
12:00 pm66 °FPassing clouds.3 mph52%30.27 "HgN/A
11:00 am64 °FSunny.1 mph56%30.30 "Hg10 mi
10:00 am59 °FPassing clouds.3 mph77%30.30 "HgN/A
9:00 am55 °FSunny.1 mph88%30.30 "Hg10 mi
8:00 am52 °FSunny.1 mph94%30.30 "Hg10 mi
7:00 am50 °FClear.No wind94%30.27 "Hg4 mi
6:00 am50 °FClear.1 mph94%30.27 "Hg5 mi
Weather by CustomWeather, © 2016

See weather overviewHow to use our weather pages